Powrót do katalogu

SKYSAT C7

AktywnyNaukaSSO
NORAD 42991·PAYLOAD·🇺🇸 United States

Wystrzelony Oct 31, 2017 z Vandenberg Space Force Base

Loading…

Następne Przeloty (najbliższe 24 godziny)

TLE

ŚwieżeSource: CelesTrak SupGP

Epoka: Sep 14, 2026, 14:49 UTC

1 42991C 17068E   26257.61777778  .00012694  00000+0  33504-3 0  2575
2 42991  97.4663  36.6436 0006533 137.1064 303.9171 15.38481838    13

Śledź SKYSAT C7 w czasie rzeczywistym z AllMySat

Download on the App Store